Powrót do katalogu

COSMOS 2251 DEB

AktywnyLEO
NORAD 33826·DEBRIS·🇷🇺 Russia

Wystrzelony Jun 16, 1993 z Plesetsk Cosmodrome

Loading…

Następne Przeloty (najbliższe 24 godziny)

TLE

ŚwieżeSource: Space-Track

Epoka: Sep 14, 2026, 11:19 UTC

1 33826U 93036BT  26257.47209593  .00004521  00000-0  10110-2 0  9991
2 33826  74.0618 250.0123 0083512 227.0503 299.8653 14.54860788917753

Śledź COSMOS 2251 DEB w czasie rzeczywistym z AllMySat

Download on the App Store